Weather History for Andravida, Greece

Change the Weather History Date:

Wednesday, October 24, 2012

  Actual Average Record
Temperature  
Mean Temperature 66 °F -  
Max Temperature 76 °F 66 °F 79 °F (2013)
Min Temperature 55 °F 49 °F 42 °F (2000)
Growing Degree Days 16 (Base 50)    
Moisture  
Dew Point 52 °F    
Average Humidity 61    
Maximum Humidity 88    
Minimum Humidity 30    
Precipitation  
Precipitation 0.00 in - - ()
Sea Level Pressure  
Sea Level Pressure 29.96 in    
Wind  
Wind Speed 4 mph ()    
Max Wind Speed 14 mph    
Max Gust Speed -    
Visibility 6.2 miles    
Events      
Averages and records for this station are not official NWS values.
T = Trace of Precipitation, MM = Missing Value Source: Averaged Metar Reports

Daily Weather History Graph

Daily Weather History Graph

Search for Another Location

Airport:

Trip Planner

Search our weather history database for the weather conditions in past years. The results will help you decide how hot, cold, wet, or windy it might be!

Date:

Astronomy

Oct. 24, 2012 Rise Set
Actual Time 7:52 AM EEST 6:45 PM EEST
Civil Twilight 7:25 AM EEST 7:11 PM EEST
Nautical Twilight 6:54 AM EEST 7:42 PM EEST
Astronomical Twilight 6:24 AM EEST 8:13 PM EEST
Moon 3:46 PM EEST (10/24) 2:33 AM EEST (10/24)
Length of Visible Light 11h 46m
Length of Day
10h 52m
Waxing Gibbous, 73% of the Moon is Illuminated
Oct 24
Waxing Gibbous
Oct 29
Full
Nov 7
Last Quarter
Nov 14
New
Nov 20
First Quarter

Hourly Weather History & Observations

Time (EEST) Temp. Dew Point Humidity Pressure Visibility Wind Dir Wind Speed Gust Speed Precip Events Conditions
1:50 AM 59.0 °F 51.8 °F 77% 29.98 in 6.2 mi Calm Calm - N/A   Scattered Clouds
2:50 AM 59.0 °F 51.8 °F 77% 29.98 in 6.2 mi Calm Calm - N/A   Scattered Clouds
3:00 AM 59 °F 52 °F 69% 29.98 in 6 mi Calm Calm - -   Scattered Clouds
3:50 AM 59.0 °F 51.8 °F 77% 29.95 in 6.2 mi NNE 4.6 mph - N/A   Scattered Clouds
5:20 AM 59.0 °F 51.8 °F 77% 29.95 in 6.2 mi Calm Calm - N/A   Scattered Clouds
6:20 AM 55.4 °F 51.8 °F 88% 29.95 in 6.2 mi Calm Calm - N/A   Partly Cloudy
6:50 AM 57.2 °F 51.8 °F 82% 29.95 in 6.2 mi Calm Calm - N/A   Partly Cloudy
7:20 AM 57.2 °F 50.0 °F 77% 29.95 in 6.2 mi NNE 4.6 mph - N/A   Partly Cloudy
8:20 AM 57.2 °F 50.0 °F 77% 29.95 in 6.2 mi Calm Calm - N/A   Scattered Clouds
8:50 AM 55.4 °F 51.8 °F 88% 29.95 in 6.2 mi Calm Calm - N/A   Scattered Clouds
9:00 AM 56 °F 51 °F 77% 29.97 in 6 mi Calm Calm - -   Scattered Clouds
9:20 AM 62.6 °F 53.6 °F 72% 29.98 in 6.2 mi Calm Calm - N/A   Scattered Clouds
9:50 AM 62.6 °F 53.6 °F 72% 29.98 in 6.2 mi Calm Calm - N/A   Scattered Clouds
10:20 AM 62.6 °F 53.6 °F 72% 29.98 in 6.2 mi Calm Calm - N/A   Scattered Clouds
10:50 AM 66.2 °F 55.4 °F 68% 29.98 in 6.2 mi Calm Calm - N/A   Scattered Clouds
11:50 AM 73.4 °F 51.8 °F 47% 29.98 in 6.2 mi NNE 6.9 mph - N/A   Scattered Clouds
12:50 PM 73.4 °F 50.0 °F 44% 29.95 in 6.2 mi ENE 9.2 mph - N/A   Scattered Clouds
1:20 PM 75.2 °F 50.0 °F 41% 29.95 in 6.2 mi East 6.9 mph - N/A   Scattered Clouds
1:50 PM 77.0 °F 48.2 °F 36% 29.95 in 6.2 mi East 6.9 mph - N/A   Scattered Clouds
2:20 PM 77.0 °F 48.2 °F 36% 29.95 in 6.2 mi East 6.9 mph - N/A   Scattered Clouds
2:50 PM 75.2 °F 50.0 °F 41% 29.95 in 6.2 mi NE 13.8 mph - N/A   Partly Cloudy
3:00 PM 76 °F 50 °F 30% 29.95 in 6 mi NE 13.8 mph - -   Scattered Clouds
3:20 PM 75.2 °F 50.0 °F 41% 29.95 in 6.2 mi NE 13.8 mph - N/A   Partly Cloudy
3:50 PM 75.2 °F 51.8 °F 44% 29.92 in 6.2 mi North 13.8 mph - N/A   Partly Cloudy
4:20 PM 75.2 °F 51.8 °F 44% 29.92 in 6.2 mi North 13.8 mph - N/A   Partly Cloudy
4:50 PM 73.4 °F 51.8 °F 47% 29.95 in 6.2 mi North 13.8 mph - N/A   Partly Cloudy
5:20 PM 73.4 °F 51.8 °F 47% 29.95 in 6.2 mi North 13.8 mph - N/A   Partly Cloudy
5:50 PM 71.6 °F 51.8 °F 50% 29.95 in 6.2 mi North 9.2 mph - N/A   Partly Cloudy
6:20 PM 71.6 °F 51.8 °F 50% 29.95 in 6.2 mi North 9.2 mph - N/A   Partly Cloudy
6:50 PM 68.0 °F 53.6 °F 60% 29.95 in 6.2 mi North 9.2 mph - N/A   Partly Cloudy
7:20 PM 68.0 °F 53.6 °F 60% 29.95 in 6.2 mi North 9.2 mph - N/A   Partly Cloudy
7:50 PM 66.2 °F 51.8 °F 60% 29.95 in 6.2 mi North 6.9 mph - N/A   Partly Cloudy
8:20 PM 66.2 °F 51.8 °F 60% 29.95 in 6.2 mi North 6.9 mph - N/A   Partly Cloudy
8:50 PM 64.4 °F 51.8 °F 64% 29.95 in 6.2 mi North 4.6 mph - N/A   Partly Cloudy
9:00 PM 64 °F 52 °F 55% 29.97 in 6 mi North 4.6 mph - -   Scattered Clouds
9:50 PM 62.6 °F 50.0 °F 63% 29.95 in 6.2 mi Calm Calm - N/A   Partly Cloudy
10:50 PM 60.8 °F 50.0 °F 68% 29.98 in 6.2 mi Calm Calm - N/A   Partly Cloudy
11:50 PM 57.2 °F 51.8 °F 82% 29.98 in 6.2 mi Calm Calm - N/A   Partly Cloudy